Weather History for PFYU - December, 2013

Change the Weather History Date:

Friday, December 20, 2013

  Actual Average Record
Temperature  
Mean Temperature -30 °F -  
Max Temperature -27 °F -2 °F 10 °F (2006)
Min Temperature -33 °F -15 °F -53 °F (2012)
Degree Days  
Heating Degree Days 95    
Moisture  
Dew Point -27 °F    
Average Humidity 100    
Maximum Humidity 100    
Minimum Humidity 100    
Precipitation  
Precipitation 0.00 in - - ()
Sea Level Pressure  
Sea Level Pressure 29.99 in    
Wind  
Wind Speed 0 mph (NE)    
Max Wind Speed 4 mph    
Max Gust Speed -    
Visibility 10 miles    
Events      
Averages and records for this station are not official NWS values.
T = Trace of Precipitation, MM = Missing Value Source: NWS Daily Summary

Daily Weather History Graph

Daily Weather History Graph

Search for Another Location

Airport or City:

Trip Planner

Search our weather history database for the weather conditions in past years. The results will help you decide how hot, cold, wet, or windy it might be!

Date:

Astronomy

Dec. 20, 2013 Rise Set
Actual Time 11:33 AM AKST 1:43 PM AKST
Civil Twilight 9:40 AM AKST 3:36 PM AKST
Nautical Twilight 8:20 AM AKST 4:57 PM AKST
Astronomical Twilight 7:14 AM AKST 6:03 PM AKST
Moon 7:23 PM AKST (12/20) 11:28 AM AKST (12/20)
Length of Visible Light 5h 55m
Length of Day
2h 09m
Waning Gibbous, 89% of the Moon is Illuminated
Dec 20
Waning Gibbous
Dec 25
Last Quarter
Jan 1
New
Jan 7
First Quarter
Jan 15
Full

Hourly Weather History & Observations

Time (AKST) Temp. Windchill Dew Point Humidity Pressure Visibility Wind Dir Wind Speed Gust Speed Precip Events Conditions
12:36 AM -29.2 °F - - N/A% 29.97 in 10.0 mi Calm Calm - N/A   Clear
12:56 AM -29.2 °F - - N/A% 29.97 in 10.0 mi Calm Calm - N/A   Clear
1:36 AM -29.2 °F - - N/A% 29.97 in 10.0 mi Calm Calm - N/A   Clear
2:16 AM -27.4 °F -39.2 °F - N/A% 29.97 in 10.0 mi NNE 3.5 mph - N/A   Clear
2:36 AM -27.4 °F - - N/A% 29.98 in 10.0 mi Calm Calm - N/A   Clear
2:56 AM -27.4 °F - - N/A% 29.98 in 10.0 mi Calm Calm - N/A   Clear
3:36 AM -27.4 °F - - N/A% 29.97 in 10.0 mi Calm Calm - N/A   Clear
3:56 AM -27.4 °F - -27.4 °F 100% 29.97 in 10.0 mi Calm Calm - N/A   Clear
4:36 AM -27.4 °F - - N/A% 29.97 in 10.0 mi Calm Calm - N/A   Clear
5:16 AM -31.0 °F - - N/A% 29.97 in 10.0 mi Calm Calm - N/A   Clear
5:36 AM -29.2 °F - - N/A% 29.97 in 10.0 mi Calm Calm - N/A   Clear
6:36 AM -29.2 °F - - N/A% 29.98 in 10.0 mi Calm Calm - N/A   Clear
7:16 AM -31.0 °F - - N/A% 29.98 in 10.0 mi Calm Calm - N/A   Clear
7:56 AM -32.8 °F - - N/A% 29.99 in 10.0 mi Calm Calm - N/A   Clear
8:16 AM -32.8 °F - - N/A% 29.99 in 10.0 mi Calm Calm - N/A   Clear
8:56 AM -32.8 °F - - N/A% 30.00 in 10.0 mi Calm Calm - N/A   Clear
9:36 AM -32.8 °F - - N/A% 30.00 in 10.0 mi Calm Calm - N/A   Clear
11:56 AM -31.0 °F - - N/A% 30.02 in 10.0 mi Calm Calm - N/A   Clear
12:16 PM -31.0 °F - - N/A% 30.02 in 10.0 mi Calm Calm - N/A   Clear
12:36 PM -29.2 °F - - N/A% 30.02 in 10.0 mi Calm Calm - N/A   Clear
12:56 PM -29.2 °F - - N/A% 30.02 in 10.0 mi Calm Calm - N/A   Clear
1:16 PM -29.2 °F - - N/A% 30.02 in 10.0 mi Calm Calm - N/A   Clear
2:16 PM -29.2 °F - - N/A% 30.01 in 10.0 mi Calm Calm - N/A   Clear
2:56 PM -29.2 °F - - N/A% 30.02 in 10.0 mi Calm Calm - N/A   Clear
3:16 PM -29.2 °F - - N/A% 30.02 in 10.0 mi Calm Calm - N/A   Clear
4:56 PM -29.2 °F -41.2 °F - N/A% 30.01 in 10.0 mi NE 3.5 mph - N/A   Clear
5:56 PM -29.2 °F - - N/A% 30.01 in 10.0 mi Calm Calm - N/A   Clear
6:56 PM -29.2 °F - - N/A% 30.00 in 10.0 mi Calm Calm - N/A   Clear
7:16 PM -29.2 °F - - N/A% 30.00 in 10.0 mi Calm Calm - N/A   Clear
7:36 PM -31.0 °F - - N/A% 30.00 in 8.0 mi Calm Calm - N/A   Clear
8:16 PM -31.0 °F -43.3 °F - N/A% 29.99 in 9.0 mi NE 3.5 mph - N/A   Clear
8:56 PM -31.0 °F - - N/A% 29.98 in 10.0 mi Calm Calm - N/A   Clear
9:16 PM -31.0 °F - - N/A% 29.97 in 10.0 mi Calm Calm - N/A   Clear
9:56 PM -31.0 °F -43.3 °F - N/A% 29.96 in 7.0 mi NE 3.5 mph - N/A   Clear
10:16 PM -32.8 °F -45.3 °F - N/A% 29.96 in 9.0 mi NE 3.5 mph - N/A   Clear
10:36 PM -31.0 °F - - N/A% 29.96 in 10.0 mi Calm Calm - N/A   Clear
10:56 PM -31.0 °F -43.3 °F - N/A% 29.95 in 10.0 mi ENE 3.5 mph - N/A   Clear
11:16 PM -29.2 °F - - N/A% 29.96 in 10.0 mi Calm Calm - N/A   Clear
11:56 PM -32.8 °F - - N/A% 29.94 in 10.0 mi Calm Calm - N/A   Clear